• En España
  • Lista de países
  • Para 7 días
  • Temperatura del agua
  • Mapa Satelital
  • El tiempo en el mapa
  • Informadores
  • user-avatar
    Iniciar sesión

    Tiempo cada hora Algiers

    Hoy, 18 Octubre, Miércoles

    Tiempo Temperatura Precipitaciones Viento Presión Humedad
    00:00 +22°C° 0 mm 3 mps 752 mmHg 34%
    01:00 +22°C° 0 mm 3 mps 751 mmHg 33%
    02:00 +22°C° 0 mm 3 mps 751 mmHg 33%
    03:00 +21°C° 0 mm 3 mps 750 mmHg 32%
    04:00 +21°C° 0 mm 3 mps 750 mmHg 33%
    05:00 +21°C° 0 mm 4 mps 750 mmHg 34%
    06:00 +21°C° 0 mm 4 mps 750 mmHg 37%
    07:00 +23°C° 0 mm 4 mps 750 mmHg 33%
    08:00 +25°C° 0 mm 4 mps 750 mmHg 30%
    09:00 +27°C° 0 mm 4 mps 750 mmHg 26%
    10:00 +28°C° 0 mm 4 mps 749 mmHg 24%
    11:00 +29°C° 0 mm 3 mps 749 mmHg 22%
    12:00 +30°C° 0 mm 3 mps 749 mmHg 20%
    13:00 +30°C° 0 mm 3 mps 748 mmHg 20%
    14:00 +31°C° 0 mm 3 mps 748 mmHg 19%
    15:00 +31°C° 0 mm 2 mps 747 mmHg 19%
    16:00 +29°C° 0 mm 2 mps 747 mmHg 23%
    17:00 +27°C° 0 mm 2 mps 747 mmHg 28%
    18:00 +25°C° 0 mm 2 mps 747 mmHg 32%
    19:00 +25°C° 0 mm 3 mps 748 mmHg 36%
    20:00 +25°C° 0 mm 5 mps 748 mmHg 40%
    21:00 +23°C° 0 mm 6 mps 748 mmHg 44%
    22:00 +23°C° 0,1 mm 6 mps 748 mmHg 51%
    23:00 +22°C° 0,1 mm 6 mps 748 mmHg 58%

    Mañana, 19 Octubre, Jueves

    Tiempo Temperatura Precipitaciones Viento Presión Humedad
    00:00 +21°C° 0,1 mm 5 mps 748 mmHg 65%
    01:00 +21°C° 0,4 mm 5 mps 748 mmHg 67%
    02:00 +21°C° 0,4 mm 5 mps 747 mmHg 68%
    03:00 +21°C° 0,4 mm 5 mps 747 mmHg 69%
    04:00 +20°C° 0,1 mm 5 mps 747 mmHg 67%
    05:00 +20°C° 0,1 mm 5 mps 747 mmHg 65%
    06:00 +20°C° 0,1 mm 5 mps 747 mmHg 63%
    07:00 +21°C° 0,1 mm 5 mps 747 mmHg 58%
    08:00 +23°C° 0,1 mm 5 mps 747 mmHg 52%
    09:00 +25°C° 0,1 mm 5 mps 747 mmHg 47%
    10:00 +23°C° 0,8 mm 5 mps 747 mmHg 51%
    11:00 +23°C° 0,8 mm 6 mps 746 mmHg 55%
    12:00 +22°C° 0,8 mm 6 mps 746 mmHg 59%
    13:00 +21°C° 1,7 mm 6 mps 746 mmHg 63%
    14:00 +20°C° 1,7 mm 6 mps 746 mmHg 67%
    15:00 +20°C° 1,7 mm 6 mps 746 mmHg 70%
    16:00 +19°C° 0,7 mm 5 mps 746 mmHg 70%
    17:00 +19°C° 0,7 mm 5 mps 746 mmHg 71%
    18:00 +19°C° 0,7 mm 4 mps 746 mmHg 71%
    19:00 +19°C° 0,1 mm 4 mps 747 mmHg 70%
    20:00 +18°C° 0,1 mm 4 mps 747 mmHg 70%
    21:00 +18°C° 0,1 mm 4 mps 748 mmHg 69%
    22:00 +17°C° 0,2 mm 5 mps 747 mmHg 69%
    23:00 +16°C° 0,2 mm 5 mps 747 mmHg 69%

    Pasado mañana, 20 Octubre, Viernes

    Tiempo Temperatura Precipitaciones Viento Presión Humedad
    00:00 +16°C° 0,2 mm 5 mps 747 mmHg 70%
    01:00 +16°C° 1 mm 5 mps 747 mmHg 67%
    02:00 +16°C° 1 mm 5 mps 747 mmHg 64%
    03:00 +16°C° 1 mm 5 mps 747 mmHg 61%
    04:00 +16°C° 1,3 mm 5 mps 747 mmHg 61%
    05:00 +16°C° 1,3 mm 5 mps 747 mmHg 61%
    06:00 +16°C° 1,3 mm 5 mps 748 mmHg 61%
    07:00 +17°C° 0,6 mm 5 mps 748 mmHg 59%
    08:00 +20°C° 0,6 mm 5 mps 749 mmHg 57%
    09:00 +21°C° 0,6 mm 5 mps 749 mmHg 55%
    10:00 +22°C° 0,1 mm 5 mps 749 mmHg 53%
    11:00 +23°C° 0,1 mm 6 mps 749 mmHg 50%
    12:00 +24°C° 0,1 mm 6 mps 749 mmHg 48%
    13:00 +23°C° 0,2 mm 6 mps 749 mmHg 51%
    14:00 +23°C° 0,2 mm 6 mps 749 mmHg 55%
    15:00 +22°C° 0,2 mm 6 mps 749 mmHg 58%
    16:00 +22°C° 0,3 mm 5 mps 750 mmHg 63%
    17:00 +21°C° 0,3 mm 5 mps 750 mmHg 67%
    18:00 +20°C° 0,3 mm 4 mps 751 mmHg 72%
    19:00 +20°C° 0,2 mm 4 mps 751 mmHg 73%
    20:00 +20°C° 0,2 mm 3 mps 752 mmHg 75%
    21:00 +20°C° 0,2 mm 2 mps 752 mmHg 76%
    22:00 +20°C° 0,1 mm 2 mps 752 mmHg 77%
    23:00 +20°C° 0,1 mm 2 mps 752 mmHg 78%

    21 Octubre, Sábado

    Tiempo Temperatura Precipitaciones Viento Presión Humedad
    00:00 +20°C° 0,1 mm 2 mps 752 mmHg 79%
    01:00 +20°C° 0,1 mm 2 mps 752 mmHg 79%
    02:00 +20°C° 0,1 mm 3 mps 752 mmHg 80%
    03:00 +19°C° 0,1 mm 3 mps 752 mmHg 81%
    04:00 +19°C° 0,1 mm 3 mps 753 mmHg 81%
    05:00 +19°C° 0,1 mm 3 mps 753 mmHg 80%
    06:00 +19°C° 0,1 mm 3 mps 753 mmHg 80%
    07:00 +20°C° 0,1 mm 3 mps 753 mmHg 77%
    08:00 +21°C° 0,1 mm 3 mps 754 mmHg 74%
    09:00 +21°C° 0,1 mm 3 mps 754 mmHg 71%
    10:00 +22°C° 0,1 mm 3 mps 754 mmHg 67%
    11:00 +24°C° 0,1 mm 3 mps 754 mmHg 63%
    12:00 +25°C° 0,1 mm 3 mps 754 mmHg 59%
    13:00 +25°C° 0 mm 3 mps 753 mmHg 58%
    14:00 +25°C° 0 mm 3 mps 753 mmHg 57%
    15:00 +25°C° 0 mm 3 mps 753 mmHg 56%
    16:00 +24°C° 0 mm 2 mps 753 mmHg 61%
    17:00 +23°C° 0 mm 2 mps 753 mmHg 66%
    18:00 +22°C° 0 mm 1 mps 753 mmHg 71%
    19:00 +22°C° 0 mm 1 mps 754 mmHg 74%
    20:00 +21°C° 0 mm 1 mps 754 mmHg 76%
    21:00 +21°C° 0 mm 1 mps 754 mmHg 78%
    22:00 +21°C° 0 mm 1 mps 754 mmHg 78%
    23:00 +21°C° 0 mm 1 mps 754 mmHg 78%

    22 Octubre, Domingo

    Tiempo Temperatura Precipitaciones Viento Presión Humedad
    00:00 +20°C° 0 mm 1 mps 754 mmHg 78%
    01:00 +20°C° 0 mm 1 mps 754 mmHg 76%
    02:00 +20°C° 0 mm 1 mps 754 mmHg 74%
    03:00 +20°C° 0 mm 1 mps 753 mmHg 72%
    04:00 +20°C° 0 mm 1 mps 753 mmHg 70%
    05:00 +20°C° 0 mm 1 mps 754 mmHg 68%
    06:00 +20°C° 0 mm 1 mps 754 mmHg 66%
    07:00 +21°C° 0 mm 1 mps 754 mmHg 59%
    08:00 +23°C° 0 mm 1 mps 754 mmHg 52%
    09:00 +25°C° 0 mm 1 mps 754 mmHg 45%
    10:00 +26°C° 0 mm 1 mps 754 mmHg 43%
    11:00 +26°C° 0 mm 2 mps 754 mmHg 42%
    12:00 +27°C° 0 mm 2 mps 754 mmHg 40%
    13:00 +27°C° 0 mm 2 mps 753 mmHg 42%
    14:00 +27°C° 0 mm 3 mps 753 mmHg 45%
    15:00 +26°C° 0 mm 3 mps 753 mmHg 47%
    16:00 +25°C° 0 mm 3 mps 753 mmHg 53%
    17:00 +24°C° 0 mm 3 mps 753 mmHg 60%
    18:00 +22°C° 0 mm 3 mps 754 mmHg 67%
    19:00 +21°C° 0 mm 3 mps 754 mmHg 71%
    20:00 +21°C° 0 mm 3 mps 754 mmHg 76%
    21:00 +20°C° 0 mm 3 mps 754 mmHg 80%
    22:00 +20°C° 0,1 mm 3 mps 754 mmHg 82%
    23:00 +19°C° 0,1 mm 3 mps 754 mmHg 84%

    23 Octubre, Lunes

    Tiempo Temperatura Precipitaciones Viento Presión Humedad
    00:00 +19°C° 0,1 mm 3 mps 754 mmHg 86%
    01:00 +19°C° 0,1 mm 3 mps 754 mmHg 87%
    02:00 +19°C° 0,1 mm 3 mps 753 mmHg 88%
    03:00 +18°C° 0,1 mm 3 mps 753 mmHg 89%
    04:00 +18°C° 0 mm 3 mps 753 mmHg 89%
    05:00 +18°C° 0 mm 2 mps 753 mmHg 89%
    06:00 +18°C° 0 mm 2 mps 753 mmHg 89%
    07:00 +19°C° 0 mm 3 mps 753 mmHg 83%
    08:00 +20°C° 0 mm 3 mps 754 mmHg 76%
    09:00 +22°C° 0 mm 3 mps 754 mmHg 70%
    10:00 +22°C° 0 mm 3 mps 754 mmHg 65%
    11:00 +23°C° 0 mm 4 mps 754 mmHg 60%
    12:00 +25°C° 0 mm 4 mps 753 mmHg 56%
    13:00 +25°C° 0 mm 4 mps 753 mmHg 55%
    14:00 +23°C° 0 mm 4 mps 753 mmHg 55%
    15:00 +23°C° 0 mm 4 mps 752 mmHg 55%
    16:00 +22°C° 0 mm 4 mps 752 mmHg 60%
    17:00 +21°C° 0 mm 3 mps 752 mmHg 65%
    18:00 +20°C° 0 mm 3 mps 753 mmHg 70%
    19:00 +19°C° 0 mm 3 mps 753 mmHg 72%
    20:00 +19°C° 0 mm 2 mps 753 mmHg 74%
    21:00 +18°C° 0 mm 2 mps 753 mmHg 77%
    22:00 +18°C° 0 mm 2 mps 753 mmHg 77%
    23:00 +17°C° 0 mm 2 mps 753 mmHg 77%
    Mostrar más